TimeEST,TemperatureF,Dew PointF,Humidity,Sea Level PressureIn,VisibilityMPH,Wind Direction,Wind SpeedMPH,Gust SpeedMPH,PrecipitationIn,Events,Conditions,WindDirDegrees,DateUTC
12:15 AM,30.6,22.3,71,29.94,10.0,Calm,Calm,-,N/A,,Clear,0,2013-01-22 05:15:00
12:35 AM,30.2,22.1,72,29.94,10.0,Calm,Calm,-,N/A,,Clear,0,2013-01-22 05:35:00
12:55 AM,30.2,21.6,70,29.95,10.0,NNW,5.8,-,N/A,,Clear,330,2013-01-22 05:55:00
1:15 AM,31.5,20.1,63,29.96,10.0,NNW,6.9,-,N/A,,Clear,330,2013-01-22 06:15:00
1:35 AM,31.5,19.2,61,29.97,10.0,NW,3.5,-,N/A,,Clear,310,2013-01-22 06:35:00
1:55 AM,30.9,19.4,62,29.99,10.0,WNW,3.5,-,N/A,,Clear,290,2013-01-22 06:55:00
2:15 AM,30.0,18.9,63,29.99,10.0,NW,4.6,-,N/A,,Scattered Clouds,310,2013-01-22 07:15:00
2:35 AM,31.1,13.8,49,30.00,10.0,WNW,6.9,-,N/A,,Clear,300,2013-01-22 07:35:00
2:55 AM,31.5,11.8,44,30.01,10.0,NW,8.1,-,N/A,,Clear,320,2013-01-22 07:55:00
3:15 AM,31.3,11.5,44,30.01,10.0,NW,12.7,18.4,N/A,,Clear,310,2013-01-22 08:15:00
3:35 AM,30.9,11.3,44,30.03,10.0,NW,15.0,25.3,N/A,,Clear,310,2013-01-22 08:35:00
3:55 AM,30.0,8.2,40,30.04,10.0,NW,15.0,23.0,N/A,,Clear,320,2013-01-22 08:55:00
4:15 AM,29.1,4.6,35,30.05,10.0,WNW,11.5,19.6,N/A,,Clear,300,2013-01-22 09:15:00
4:35 AM,28.8,2.7,33,30.06,10.0,NW,13.8,18.4,N/A,,Clear,310,2013-01-22 09:35:00
4:55 AM,28.0,1.2,32,30.07,10.0,NW,12.7,19.6,N/A,,Clear,310,2013-01-22 09:55:00
5:15 AM,27.5,0.9,32,30.08,10.0,WNW,13.8,26.5,N/A,,Clear,290,2013-01-22 10:15:00
5:35 AM,27.3,0.3,31,30.09,10.0,WNW,15.0,24.2,N/A,,Clear,300,2013-01-22 10:35:00
5:55 AM,27.0,-1.5,29,30.11,10.0,WNW,15.0,21.9,N/A,,Clear,300,2013-01-22 10:55:00
6:15 AM,26.4,-2.0,29,30.12,10.0,WNW,11.5,21.9,N/A,,Clear,300,2013-01-22 11:15:00
6:35 AM,25.7,-2.7,29,30.13,10.0,NW,16.1,24.2,N/A,,Clear,310,2013-01-22 11:35:00
6:55 AM,25.3,-2.6,30,30.14,10.0,NW,11.5,21.9,N/A,,Clear,320,2013-01-22 11:55:00
7:15 AM,24.8,-2.2,31,30.15,10.0,NW,8.1,16.1,N/A,,Clear,310,2013-01-22 12:15:00
7:35 AM,24.8,-2.6,30,30.17,10.0,WNW,8.1,-,N/A,,Clear,300,2013-01-22 12:35:00
7:55 AM,24.8,-2.4,31,30.17,10.0,WNW,10.4,-,N/A,,Clear,300,2013-01-22 12:55:00
8:15 AM,25.2,-1.7,31,30.18,10.0,NW,10.4,16.1,N/A,,Clear,320,2013-01-22 13:15:00
8:35 AM,25.3,-2.9,29,30.20,10.0,NW,12.7,19.6,N/A,,Unknown,320,2013-01-22 13:35:00
8:55 AM,25.7,-3.5,28,30.21,10.0,WNW,15.0,-,N/A,,Unknown,300,2013-01-22 13:55:00
9:15 AM,25.7,-4.2,27,30.22,10.0,NW,10.4,20.7,N/A,,Unknown,310,2013-01-22 14:15:00
9:35 AM,26.1,-4.2,27,30.22,10.0,WNW,11.5,19.6,N/A,,Unknown,300,2013-01-22 14:35:00
9:55 AM,27.1,-4.0,26,30.23,10.0,WNW,15.0,19.6,N/A,,Unknown,290,2013-01-22 14:55:00
10:15 AM,27.5,-2.7,27,30.24,10.0,WNW,9.2,16.1,N/A,,Unknown,300,2013-01-22 15:15:00
10:35 AM,27.9,-3.8,25,30.24,10.0,NW,9.2,17.3,N/A,,Clear,320,2013-01-22 15:35:00
10:55 AM,28.4,-4.5,24,30.23,10.0,WNW,13.8,21.9,N/A,,Clear,290,2013-01-22 15:55:00
11:15 AM,28.4,-5.3,23,30.22,10.0,WNW,8.1,17.3,N/A,,Clear,300,2013-01-22 16:15:00
11:35 AM,28.0,-5.4,23,30.22,10.0,WNW,15.0,25.3,N/A,,Clear,290,2013-01-22 16:35:00
11:55 AM,28.6,-5.4,23,30.21,10.0,NW,16.1,23.0,N/A,,Clear,310,2013-01-22 16:55:00
12:15 PM,28.9,-5.6,22,30.20,10.0,NNW,8.1,21.9,N/A,,Clear,330,2013-01-22 17:15:00
12:35 PM,28.4,-6.9,21,30.19,10.0,NW,12.7,21.9,N/A,,Clear,320,2013-01-22 17:35:00
12:55 PM,28.8,-6.0,22,30.18,10.0,NW,8.1,20.7,N/A,,Clear,310,2013-01-22 17:55:00
1:15 PM,29.5,-5.1,22,30.18,10.0,NNW,12.7,18.4,N/A,,Clear,330,2013-01-22 18:15:00
1:35 PM,30.2,-4.4,22,30.18,10.0,West,10.4,18.4,N/A,,Clear,280,2013-01-22 18:35:00
1:55 PM,30.2,-3.8,23,30.17,10.0,West,10.4,23.0,N/A,,Clear,280,2013-01-22 18:55:00
2:15 PM,30.9,-4.4,22,30.17,10.0,West,11.5,17.3,N/A,,Clear,280,2013-01-22 19:15:00
2:35 PM,30.4,-5.6,21,30.17,10.0,West,10.4,19.6,N/A,,Clear,260,2013-01-22 19:35:00
2:55 PM,31.1,-5.4,21,30.17,10.0,NW,15.0,21.9,N/A,,Clear,310,2013-01-22 19:55:00
3:15 PM,31.1,-5.3,21,30.18,10.0,WNW,12.7,-,N/A,,Clear,290,2013-01-22 20:15:00
3:35 PM,30.7,-5.6,21,30.18,10.0,NW,9.2,18.4,N/A,,Clear,310,2013-01-22 20:35:00
3:55 PM,30.6,-5.6,21,30.18,10.0,West,8.1,16.1,N/A,,Clear,280,2013-01-22 20:55:00
4:15 PM,30.0,-6.0,21,30.19,10.0,NW,11.5,17.3,N/A,,Clear,310,2013-01-22 21:15:00
4:35 PM,29.8,-5.3,22,30.19,10.0,NW,9.2,-,N/A,,Clear,320,2013-01-22 21:35:00
4:55 PM,29.3,-5.1,23,30.20,10.0,NW,6.9,-,N/A,,Clear,310,2013-01-22 21:55:00
5:15 PM,28.4,-4.9,24,30.20,10.0,NW,4.6,-,N/A,,Clear,320,2013-01-22 22:15:00
5:35 PM,28.0,-5.1,24,30.21,10.0,NNW,3.5,-,N/A,,Clear,330,2013-01-22 22:35:00
5:55 PM,27.5,-4.4,25,30.22,10.0,NNW,4.6,-,N/A,,Clear,330,2013-01-22 22:55:00
6:15 PM,27.3,-3.6,26,30.23,10.0,NNW,4.6,-,N/A,,Clear,340,2013-01-22 23:15:00
6:35 PM,26.4,-2.9,28,30.24,10.0,NW,4.6,-,N/A,,Clear,320,2013-01-22 23:35:00
6:55 PM,26.1,-2.2,29,30.25,10.0,North,6.9,-,N/A,,Clear,10,2013-01-22 23:55:00
7:15 PM,25.2,-1.5,32,30.25,10.0,North,4.6,-,N/A,,Clear,10,2013-01-23 00:15:00
7:35 PM,24.8,-1.3,32,30.25,10.0,North,6.9,-,N/A,,Clear,350,2013-01-23 00:35:00
7:55 PM,24.6,-1.5,32,30.26,10.0,North,4.6,-,N/A,,Clear,10,2013-01-23 00:55:00
8:15 PM,23.7,-1.1,34,30.27,10.0,North,5.8,-,N/A,,Clear,10,2013-01-23 01:15:00
8:35 PM,23.2,-1.7,34,30.27,10.0,North,6.9,-,N/A,,Unknown,360,2013-01-23 01:35:00
8:55 PM,22.8,-1.1,35,30.28,10.0,North,4.6,-,N/A,,Unknown,10,2013-01-23 01:55:00
9:15 PM,22.1,-0.6,37,30.28,10.0,North,4.6,-,N/A,,Unknown,360,2013-01-23 02:15:00
9:35 PM,21.9,-0.4,38,30.29,10.0,North,3.5,-,N/A,,Clear,350,2013-01-23 02:35:00
9:55 PM,21.2,-0.2,39,30.29,10.0,Calm,Calm,-,N/A,,Clear,0,2013-01-23 02:55:00
10:15 PM,21.0,0.5,41,30.29,10.0,NNW,3.5,-,N/A,,Unknown,340,2013-01-23 03:15:00
10:35 PM,21.0,0.9,42,30.30,10.0,Calm,Calm,-,N/A,,Unknown,0,2013-01-23 03:35:00
10:55 PM,20.8,0.7,42,30.30,10.0,NNW,4.6,-,N/A,,Unknown,340,2013-01-23 03:55:00
11:15 PM,20.8,1.2,43,30.30,10.0,Calm,Calm,-,N/A,,Unknown,0,2013-01-23 04:15:00
11:35 PM,19.8,2.5,47,30.30,10.0,Calm,Calm,-,N/A,,Unknown,0,2013-01-23 04:35:00
11:55 PM,18.7,4.6,54,30.30,10.0,Calm,Calm,-,N/A,,Unknown,0,2013-01-23 04:55:00